FW5830 Weather Reports


time (UTC)temp
C
wind
direction
speed
KPH
gust
KPH
rain 1hr
cm
rain 24hr
cm
rain mn
cm
humidity
%
barometer
mb
20260905093106 21 48 0.0 3.2 0.00 0.00 0.00 37 1018.4
20260905091556 21 0 0.0 1.6 0.00 0.00 0.00 38 1018.4
20260905090054 21 58 0.0 0.0 0.00 0.00 0.00 37 1018.5
20260905084557 21 58 0.0 1.6 0.00 0.00 0.00 37 1018.4
20260905083048 21 0 1.6 3.2 0.00 0.00 0.00 35 1018.4
20260905081557 21 0 0.0 1.6 0.00 0.00 0.00 36 1018.5
20260905080055 21 0 0.0 3.2 0.00 0.00 0.00 37 1018.5
20260905074553 21 348 1.6 1.6 0.00 0.00 0.00 35 1018.6
20260905073048 22 0 0.0 4.8 0.00 0.00 0.00 34 1018.6
20260905071556 22 0 0.0 3.2 0.00 0.00 0.00 34 1018.5
20260905070058 22 337 0.0 1.6 0.00 0.00 0.00 34 1018.6
20260905064610 22 329 0.0 3.2 0.00 0.00 0.00 33 1018.7
20260905063056 22 86 0.0 3.2 0.00 0.00 0.00 33 1018.4
20260905061603 23 111 0.0 1.6 0.00 0.00 0.00 32 1018.4
20260905060056 23 87 0.0 3.2 0.00 0.00 0.00 32 1018.3
20260905054559 23 75 1.6 4.8 0.00 0.00 0.00 33 1018.2
20260905053059 23 93 1.6 3.2 0.00 0.00 0.00 33 1018.3
20260905051556 23 91 0.0 3.2 0.00 0.00 0.00 34 1018.2
20260905050058 23 95 1.6 6.4 0.00 0.00 0.00 34 1018.2
20260905044550 23 97 0.0 3.2 0.00 0.00 0.00 34 1018.2
20260905043105 23 311 0.0 1.6 0.00 0.00 0.00 34 1018.2
20260905041558 23 308 0.0 3.2 0.00 0.00 0.00 32 1018.3
20260905040056 23 0 0.0 1.6 0.00 0.00 0.00 32 1018.3
20260905034550 24 0 0.0 3.2 0.00 0.00 0.00 32 1018.4
20260905033058 25 0 0.0 1.6 0.00 0.00 0.00 33 1018.4
20260905031556 25 0 0.0 3.2 0.00 0.00 0.00 31 1018.4
20260905030110 26 308 1.6 4.8 0.00 0.00 0.00 30 1018.2
20260905024604 26 212 1.6 3.2 0.00 0.00 0.00 30 1018.1
20260905023056 26 212 0.0 3.2 0.00 0.00 0.00 29 1017.8
20260905021556 26 0 0.0 1.6 0.00 0.00 0.00 28 1017.5
20260905020051 27 210 0.0 3.2 0.00 0.00 0.00 27 1017.1
20260905014558 27 210 1.6 9.7 0.00 0.00 0.00 26 1017.1
20260905013056 27 0 0.0 4.8 0.00 0.00 0.00 26 1016.9
20260905011556 27 0 0.0 1.6 0.00 0.00 0.00 25 1017.0
20260905010050 28 0 0.0 3.2 0.00 0.00 0.00 25 1016.9
20260905004556 29 267 0.0 8.0 0.00 0.00 0.00 24 1017.1
20260905003055 29 256 1.6 6.4 0.00 0.00 0.00 23 1017.1
20260905001552 30 292 1.6 9.7 0.00 0.00 0.00 23 1017.0
20260905000100 30 318 1.6 12.9 0.00 0.00 0.00 22 1016.8
20260904234601 31 309 1.6 6.4 0.00 0.00 0.00 20 1016.7
20260904233055 31 303 1.6 6.4 0.00 0.00 0.00 19 1016.7
20260904231553 31 313 1.6 6.4 0.00 0.00 0.00 19 1016.6
20260904230048 31 292 1.6 9.7 0.00 0.00 0.00 18 1016.6
20260904224556 32 327 3.2 9.7 0.00 0.00 0.00 17 1016.7
20260904223056 31 293 1.6 9.7 0.00 0.00 0.00 17 1016.8
20260904221605 32 265 3.2 9.7 0.00 0.00 0.00 17 1016.8
20260904220111 32 199 3.2 8.0 0.00 0.00 0.00 16 1016.9
20260904214553 32 226 1.6 6.4 0.00 0.00 0.00 16 1016.9
20260904213054 32 262 3.2 11.3 0.00 0.00 0.00 16 1017.0
20260904211603 31 0 3.2 9.7 0.00 0.00 0.00 16 1017.2
20260904210100 31 207 0.0 9.7 0.00 0.00 0.00 17 1017.3
20260904204555 31 229 1.6 9.7 0.00 0.00 0.00 16 1017.5
20260904203055 31 131 3.2 9.7 0.00 0.00 0.00 16 1017.7
20260904201556 31 217 3.2 11.3 0.00 0.00 0.00 17 1017.6
20260904200121 31 194 3.2 11.3 0.00 0.00 0.00 16 1017.9
20260904194631 32 293 1.6 8.0 0.00 0.00 0.00 16 1018.0
20260904193054 31 212 1.6 8.0 0.00 0.00 0.00 16 1018.1
20260904191623 31 202 3.2 8.0 0.00 0.00 0.00 16 1018.2
20260904190057 31 292 1.6 8.0 0.00 0.00 0.00 17 1018.4
20260904184554 31 319 3.2 8.0 0.00 0.00 0.00 17 1018.6
20260904183056 31 0 3.2 11.3 0.00 0.00 0.00 17 1018.7
20260904181555 30 324 3.2 6.4 0.00 0.00 0.00 17 1019.1
20260904180058 30 266 1.6 9.7 0.00 0.00 0.00 18 1019.0
20260904174558 30 318 3.2 8.0 0.00 0.00 0.00 18 1019.1
20260904173103 30 317 3.2 6.4 0.00 0.00 0.00 19 1019.1
20260904171558 29 274 1.6 9.7 0.00 0.00 0.00 21 1019.2
20260904170058 28 279 4.8 11.3 0.00 0.00 0.00 22 1019.2
20260904164559 28 321 1.6 9.7 0.00 0.00 0.00 20 1019.3
20260904163051 28 318 1.6 3.2 0.00 0.00 0.00 20 1019.3
20260904161556 28 318 3.2 4.8 0.00 0.00 0.00 20 1019.2
20260904160056 27 319 1.6 6.4 0.00 0.00 0.00 23 1019.1
20260904154608 27 322 1.6 6.4 0.00 0.00 0.00 22 1019.1
20260904153053 27 328 1.6 4.8 0.00 0.00 0.00 23 1019.1
20260904151609 26 0 0.0 3.2 0.00 0.00 0.00 23 1018.9
20260904150054 25 331 0.0 4.8 0.00 0.00 0.00 22 1018.9
20260904144553 24 331 0.0 1.6 0.00 0.00 0.00 24 1019.0
20260904143102 23 331 0.0 3.2 0.00 0.00 0.00 28 1019.0
20260904141622 22 0 0.0 1.6 0.00 0.00 0.00 31 1018.9
20260904140106 23 0 0.0 3.2 0.00 0.00 0.00 28 1018.7
20260904134558 22 332 0.0 8.0 0.00 0.00 0.00 30 1018.5
20260904133106 20 330 4.8 8.0 0.00 0.00 0.00 30 1018.3
20260904131611 -17 0.0 0.0 0.00 0.00 0.00 1018.1
20260904130054 -17 0.0 0.0 0.00 0.00 0.00 1017.9
20260904124556 -17 0.0 0.0 0.00 0.00 0.00 1017.9
20260904123106 -17 0.0 0.0 0.00 0.00 0.00 1017.6
20260904121556 -17 0.0 0.0 0.00 0.00 0.00 1017.6
20260904120053 -17 0.0 0.0 0.00 0.00 0.00 1017.5
20260904114549 -17 0.0 0.0 0.00 0.00 0.00 1017.5
20260904113100 -17 0.0 0.0 0.00 0.00 0.00 1017.4
20260904111556 -17 0.0 0.0 0.00 0.00 0.00 1017.4
20260904110052 19 0.0 0.0 0.00 0.00 0.00 36 1017.2
20260904104551 19 203 1.6 4.8 0.00 0.00 0.00 36 1016.9
20260904103056 20 0 0.0 1.6 0.00 0.00 0.00 29 1016.6
20260904101554 20 84 0.0 1.6 0.00 0.00 0.00 29 1016.6
20260904100054 20 84 0.0 1.6 0.00 0.00 0.00 29 1016.6
20260904094556 20 84 0.0 3.2 0.00 0.00 0.00 29 1016.5